Year,Month,Day,Hour,Minute,Value (Times are PST for temperature in C)
2018,06,16,00,00,14.00
2018,06,16,00,01,14.00
2018,06,16,00,02,14.00
2018,06,16,00,03,14.00
2018,06,16,00,04,13.90
2018,06,16,00,05,13.90
2018,06,16,00,06,13.90
2018,06,16,00,07,13.90
2018,06,16,00,08,13.90
2018,06,16,00,09,13.90
2018,06,16,00,10,13.90
2018,06,16,00,11,13.90
2018,06,16,00,12,13.90
2018,06,16,00,13,13.90
2018,06,16,00,14,13.90
2018,06,16,00,15,13.80
2018,06,16,00,16,13.80
2018,06,16,00,17,13.80
2018,06,16,00,18,13.80
2018,06,16,00,19,13.80
2018,06,16,00,20,13.80
2018,06,16,00,21,13.80
2018,06,16,00,22,13.80
2018,06,16,00,23,13.80
2018,06,16,00,24,13.80
2018,06,16,00,25,13.80
2018,06,16,00,26,13.80
2018,06,16,00,27,13.80
2018,06,16,00,28,13.80
2018,06,16,00,29,13.80
2018,06,16,00,30,13.80
2018,06,16,00,31,13.80
2018,06,16,00,32,13.80
2018,06,16,00,33,13.80
2018,06,16,00,34,13.80
2018,06,16,00,35,13.80
2018,06,16,00,36,13.80
2018,06,16,00,37,13.80
2018,06,16,00,38,13.80
2018,06,16,00,39,13.80
2018,06,16,00,40,13.80
2018,06,16,00,41,13.80
2018,06,16,00,42,13.80
2018,06,16,00,43,13.90
2018,06,16,00,44,13.90
2018,06,16,00,45,13.90
2018,06,16,00,46,13.90
2018,06,16,00,47,13.80
2018,06,16,00,48,13.80
2018,06,16,00,49,13.80
2018,06,16,00,50,13.80
2018,06,16,00,51,13.80
2018,06,16,00,52,13.80
2018,06,16,00,53,13.80
2018,06,16,00,54,13.80
2018,06,16,00,55,13.80
2018,06,16,00,56,13.80
2018,06,16,00,57,13.70
2018,06,16,00,58,13.70
2018,06,16,00,59,13.70
2018,06,16,01,00,13.70
2018,06,16,01,01,13.70
2018,06,16,01,02,13.70
2018,06,16,01,03,13.60
2018,06,16,01,04,13.60
2018,06,16,01,05,13.60
2018,06,16,01,06,13.50
2018,06,16,01,07,13.50
2018,06,16,01,08,13.50
2018,06,16,01,09,13.40
2018,06,16,01,10,13.40
2018,06,16,01,11,13.40
2018,06,16,01,12,13.40
2018,06,16,01,13,13.40
2018,06,16,01,14,13.40
2018,06,16,01,15,13.30
2018,06,16,01,16,13.30
2018,06,16,01,17,13.30
2018,06,16,01,18,13.30
2018,06,16,01,19,13.30
2018,06,16,01,20,13.30
2018,06,16,01,21,13.30
2018,06,16,01,22,13.30
2018,06,16,01,23,13.30
2018,06,16,01,24,13.30
2018,06,16,01,25,13.40
2018,06,16,01,26,13.40
2018,06,16,01,27,13.40
2018,06,16,01,28,13.40
2018,06,16,01,29,13.40
2018,06,16,01,30,13.40
2018,06,16,01,31,13.40
2018,06,16,01,32,13.40
2018,06,16,01,33,13.40
2018,06,16,01,34,13.40
2018,06,16,01,35,13.40
2018,06,16,01,36,13.40
2018,06,16,01,37,13.40
2018,06,16,01,38,13.40
2018,06,16,01,39,13.40
2018,06,16,01,40,13.40
2018,06,16,01,41,13.40
2018,06,16,01,42,13.40
2018,06,16,01,43,13.40
2018,06,16,01,44,13.40
2018,06,16,01,45,13.40
2018,06,16,01,46,13.40
2018,06,16,01,47,13.40
2018,06,16,01,48,13.40
2018,06,16,01,49,13.40
2018,06,16,01,50,13.40
2018,06,16,01,51,13.40
2018,06,16,01,52,13.40
2018,06,16,01,53,13.40
2018,06,16,01,54,13.30
2018,06,16,01,55,13.30
2018,06,16,01,56,13.30
2018,06,16,01,57,13.30
2018,06,16,01,58,13.30
2018,06,16,01,59,13.30
2018,06,16,02,00,13.30
2018,06,16,02,01,13.30
2018,06,16,02,02,13.30
2018,06,16,02,03,13.30
2018,06,16,02,04,13.30
2018,06,16,02,05,13.40
2018,06,16,02,06,13.40
2018,06,16,02,07,13.40
2018,06,16,02,08,13.40
2018,06,16,02,09,13.40
2018,06,16,02,10,13.40
2018,06,16,02,11,13.40
2018,06,16,02,12,13.40
2018,06,16,02,13,13.40
2018,06,16,02,14,13.40
2018,06,16,02,15,13.40
2018,06,16,02,16,13.40
2018,06,16,02,17,13.40
2018,06,16,02,18,13.40
2018,06,16,02,19,13.30
2018,06,16,02,20,13.30
2018,06,16,02,21,13.30
2018,06,16,02,22,13.30
2018,06,16,02,23,13.30
2018,06,16,02,24,13.30
2018,06,16,02,25,13.40
2018,06,16,02,26,13.40
2018,06,16,02,27,13.40
2018,06,16,02,28,13.40
2018,06,16,02,29,13.40
2018,06,16,02,30,13.30
2018,06,16,02,31,13.30
2018,06,16,02,32,13.30
2018,06,16,02,33,13.30
2018,06,16,02,34,13.30
2018,06,16,02,35,13.30
2018,06,16,02,36,13.30
2018,06,16,02,37,13.30
2018,06,16,02,38,13.30
2018,06,16,02,39,13.30
2018,06,16,02,40,13.30
2018,06,16,02,41,13.30
2018,06,16,02,42,13.20
2018,06,16,02,43,13.20
2018,06,16,02,44,13.20
2018,06,16,02,45,13.20
2018,06,16,02,46,13.20
2018,06,16,02,47,13.20
2018,06,16,02,48,13.20
2018,06,16,02,49,13.20
2018,06,16,02,50,13.20
2018,06,16,02,51,13.20
2018,06,16,02,52,13.20
2018,06,16,02,53,13.20
2018,06,16,02,54,13.10
2018,06,16,02,55,13.10
2018,06,16,02,56,13.10
2018,06,16,02,57,13.10
2018,06,16,02,58,13.10
2018,06,16,02,59,13.10
2018,06,16,03,00,13.20
2018,06,16,03,01,13.20
2018,06,16,03,02,13.20
2018,06,16,03,03,13.20
2018,06,16,03,04,13.20
2018,06,16,03,05,13.20
2018,06,16,03,06,13.20
2018,06,16,03,07,13.10
2018,06,16,03,08,13.10
2018,06,16,03,09,13.10
2018,06,16,03,10,13.10
2018,06,16,03,11,13.10
2018,06,16,03,12,13.00
2018,06,16,03,13,13.00
2018,06,16,03,14,13.00
2018,06,16,03,15,12.90
2018,06,16,03,16,12.90
2018,06,16,03,17,12.90
2018,06,16,03,18,12.90
2018,06,16,03,19,12.90
2018,06,16,03,20,12.90
2018,06,16,03,21,12.90
2018,06,16,03,22,12.80
2018,06,16,03,23,12.80
2018,06,16,03,24,12.80
2018,06,16,03,25,12.80
2018,06,16,03,26,12.80
2018,06,16,03,27,12.80
2018,06,16,03,28,12.80
2018,06,16,03,29,12.80
2018,06,16,03,30,12.90
2018,06,16,03,31,12.90
2018,06,16,03,32,12.90
2018,06,16,03,33,12.90
2018,06,16,03,34,12.90
2018,06,16,03,35,12.90
2018,06,16,03,36,12.90
2018,06,16,03,37,12.90
2018,06,16,03,38,12.90
2018,06,16,03,39,12.90
2018,06,16,03,40,12.90
2018,06,16,03,41,13.00
2018,06,16,03,42,13.00
2018,06,16,03,43,13.00
2018,06,16,03,44,13.00
2018,06,16,03,45,13.00
2018,06,16,03,46,13.00
2018,06,16,03,47,12.90
2018,06,16,03,48,12.90
2018,06,16,03,49,13.00
2018,06,16,03,50,13.00
2018,06,16,03,51,13.00
2018,06,16,03,52,13.00
2018,06,16,03,53,13.00
2018,06,16,03,54,13.00
2018,06,16,03,55,13.00
2018,06,16,03,56,13.00
2018,06,16,03,57,13.00
2018,06,16,03,58,13.00
2018,06,16,03,59,13.00
2018,06,16,04,00,13.00
2018,06,16,04,01,13.00
2018,06,16,04,02,13.00
2018,06,16,04,03,13.00
2018,06,16,04,04,13.00
2018,06,16,04,05,13.00
2018,06,16,04,06,13.00
2018,06,16,04,07,13.00
2018,06,16,04,08,13.00
2018,06,16,04,09,13.00
2018,06,16,04,10,13.00
2018,06,16,04,11,13.00
2018,06,16,04,12,12.90
2018,06,16,04,13,12.90
2018,06,16,04,14,12.90
2018,06,16,04,15,12.90
2018,06,16,04,16,12.90
2018,06,16,04,17,12.90
2018,06,16,04,18,12.90
2018,06,16,04,19,12.90
2018,06,16,04,20,12.90
2018,06,16,04,21,12.90
2018,06,16,04,22,12.90
2018,06,16,04,23,12.90
2018,06,16,04,24,12.90
2018,06,16,04,25,12.90
2018,06,16,04,26,12.90
2018,06,16,04,27,12.90
2018,06,16,04,28,12.90
2018,06,16,04,29,13.00
2018,06,16,04,30,13.00
2018,06,16,04,31,13.00
2018,06,16,04,32,13.00
2018,06,16,04,33,13.00
2018,06,16,04,34,13.00
2018,06,16,04,35,13.00
2018,06,16,04,36,13.00
2018,06,16,04,37,13.00
2018,06,16,04,38,13.10
2018,06,16,04,39,13.10
2018,06,16,04,40,13.10
2018,06,16,04,41,13.10
2018,06,16,04,42,13.10
2018,06,16,04,43,13.10
2018,06,16,04,44,13.10
2018,06,16,04,45,13.10
2018,06,16,04,46,13.10
2018,06,16,04,47,13.10
2018,06,16,04,48,13.10
2018,06,16,04,49,13.10
2018,06,16,04,50,13.10
2018,06,16,04,51,13.10
2018,06,16,04,52,13.10
2018,06,16,04,53,13.10
2018,06,16,04,54,13.10
2018,06,16,04,55,13.10
2018,06,16,04,56,13.10
2018,06,16,04,57,13.10
2018,06,16,04,58,13.10
2018,06,16,04,59,13.10
2018,06,16,05,00,13.10
2018,06,16,05,01,13.10
2018,06,16,05,02,13.10
2018,06,16,05,03,13.10
2018,06,16,05,04,13.10
2018,06,16,05,05,13.10
2018,06,16,05,06,13.10
2018,06,16,05,07,13.10
2018,06,16,05,08,13.10
2018,06,16,05,09,13.10
2018,06,16,05,10,13.10
2018,06,16,05,11,13.20
2018,06,16,05,12,13.20
2018,06,16,05,13,13.20
2018,06,16,05,14,13.20
2018,06,16,05,15,13.20
2018,06,16,05,16,13.20
2018,06,16,05,17,13.20
2018,06,16,05,18,13.20
2018,06,16,05,19,13.20
2018,06,16,05,20,13.20
2018,06,16,05,21,13.20
2018,06,16,05,22,13.20
2018,06,16,05,23,13.20
2018,06,16,05,24,13.20
2018,06,16,05,25,13.20
2018,06,16,05,26,13.20
2018,06,16,05,27,13.20
2018,06,16,05,28,13.20
2018,06,16,05,29,13.20
2018,06,16,05,30,13.20
2018,06,16,05,31,13.20
2018,06,16,05,32,13.20
2018,06,16,05,33,13.20
2018,06,16,05,34,13.20
2018,06,16,05,35,13.20
2018,06,16,05,36,13.20
2018,06,16,05,37,13.20
2018,06,16,05,38,13.20
2018,06,16,05,39,13.20
2018,06,16,05,40,13.20
2018,06,16,05,41,13.20
2018,06,16,05,42,13.20
2018,06,16,05,43,13.20
2018,06,16,05,44,13.20
2018,06,16,05,45,13.20
2018,06,16,05,46,13.20
2018,06,16,05,47,13.20
2018,06,16,05,48,13.20
2018,06,16,05,49,13.20
2018,06,16,05,50,13.30
2018,06,16,05,51,13.30
2018,06,16,05,52,13.30
2018,06,16,05,53,13.30
2018,06,16,05,54,13.30
2018,06,16,05,55,13.30
2018,06,16,05,56,13.30
2018,06,16,05,57,13.30
2018,06,16,05,58,13.30
2018,06,16,05,59,13.30
2018,06,16,06,00,13.30
2018,06,16,06,01,13.30
2018,06,16,06,02,13.40
2018,06,16,06,03,13.40
2018,06,16,06,04,13.40
2018,06,16,06,05,13.40
2018,06,16,06,06,13.40
2018,06,16,06,07,13.40
2018,06,16,06,08,13.40
2018,06,16,06,09,13.40
2018,06,16,06,10,13.50
2018,06,16,06,11,13.50
2018,06,16,06,12,13.50
2018,06,16,06,13,13.50
2018,06,16,06,14,13.50
2018,06,16,06,15,13.50
2018,06,16,06,16,13.50
2018,06,16,06,17,13.50
2018,06,16,06,18,13.50
2018,06,16,06,19,13.50
2018,06,16,06,20,13.50
2018,06,16,06,21,13.60
2018,06,16,06,22,13.60
2018,06,16,06,23,13.60
2018,06,16,06,24,13.60
2018,06,16,06,25,13.60
2018,06,16,06,26,13.60
2018,06,16,06,27,13.60
2018,06,16,06,28,13.60
2018,06,16,06,29,13.60
2018,06,16,06,30,13.70
2018,06,16,06,31,13.70
2018,06,16,06,32,13.70
2018,06,16,06,33,13.70
2018,06,16,06,34,13.80
2018,06,16,06,35,13.80
2018,06,16,06,36,13.80
2018,06,16,06,37,13.80
2018,06,16,06,38,13.80
2018,06,16,06,39,13.80
2018,06,16,06,40,13.80
2018,06,16,06,41,13.90
2018,06,16,06,42,13.90
2018,06,16,06,43,13.90
2018,06,16,06,44,13.90
2018,06,16,06,45,13.90
2018,06,16,06,46,13.90
2018,06,16,06,47,13.90
2018,06,16,06,48,14.00
2018,06,16,06,49,14.00
2018,06,16,06,50,14.00
2018,06,16,06,51,14.00
2018,06,16,06,52,14.00
2018,06,16,06,53,14.10
2018,06,16,06,54,14.10
2018,06,16,06,55,14.10
2018,06,16,06,56,14.10
2018,06,16,06,57,14.10
2018,06,16,06,58,14.10
2018,06,16,06,59,14.10
2018,06,16,07,00,14.10
2018,06,16,07,01,14.10
2018,06,16,07,02,14.10
2018,06,16,07,03,14.20
2018,06,16,07,04,14.20
2018,06,16,07,05,14.20
2018,06,16,07,06,14.20
2018,06,16,07,07,14.20
2018,06,16,07,08,14.20
2018,06,16,07,09,14.20
2018,06,16,07,10,14.30
2018,06,16,07,11,14.30
2018,06,16,07,12,14.30
2018,06,16,07,13,14.30
2018,06,16,07,14,14.30
2018,06,16,07,15,14.30
2018,06,16,07,16,14.30
2018,06,16,07,17,14.40
2018,06,16,07,18,14.40
2018,06,16,07,19,14.40
2018,06,16,07,20,14.40
2018,06,16,07,21,14.50
2018,06,16,07,22,14.50
2018,06,16,07,23,14.50
2018,06,16,07,24,14.60
2018,06,16,07,25,14.60
2018,06,16,07,26,14.60
2018,06,16,07,27,14.60
2018,06,16,07,28,14.70
2018,06,16,07,29,14.70
2018,06,16,07,30,14.70
2018,06,16,07,31,14.80
2018,06,16,07,32,14.80
2018,06,16,07,33,14.80
2018,06,16,07,34,14.90
2018,06,16,07,35,15.00
2018,06,16,07,36,15.00
2018,06,16,07,37,15.00
2018,06,16,07,38,15.00
2018,06,16,07,39,15.00
2018,06,16,07,40,15.00
2018,06,16,07,41,15.00
2018,06,16,07,42,15.00
2018,06,16,07,43,15.10
2018,06,16,07,44,15.20
2018,06,16,07,45,15.20
2018,06,16,07,46,15.30
2018,06,16,07,47,15.30
2018,06,16,07,48,15.30
2018,06,16,07,49,15.40
2018,06,16,07,50,15.40
2018,06,16,07,51,15.50
2018,06,16,07,52,15.50
2018,06,16,07,53,15.60
2018,06,16,07,54,15.60
2018,06,16,07,55,15.70
2018,06,16,07,56,15.70
2018,06,16,07,57,15.80
2018,06,16,07,58,15.80
2018,06,16,07,59,15.80
2018,06,16,08,00,15.80
2018,06,16,08,01,15.80
2018,06,16,08,02,15.90
2018,06,16,08,03,15.90
2018,06,16,08,04,15.90
2018,06,16,08,05,15.90
2018,06,16,08,06,15.90
2018,06,16,08,07,16.00
2018,06,16,08,08,16.00
2018,06,16,08,09,16.10
2018,06,16,08,10,16.10
2018,06,16,08,11,16.10
2018,06,16,08,12,16.10
2018,06,16,08,13,16.10
2018,06,16,08,14,16.10
2018,06,16,08,15,16.20
2018,06,16,08,16,16.20
2018,06,16,08,17,16.30
2018,06,16,08,18,16.30
2018,06,16,08,19,16.30
2018,06,16,08,20,16.30
2018,06,16,08,21,16.30
2018,06,16,08,22,16.40
2018,06,16,08,23,16.40
2018,06,16,08,24,16.40
2018,06,16,08,25,16.40
2018,06,16,08,26,16.40
2018,06,16,08,27,16.40
2018,06,16,08,28,16.40
2018,06,16,08,29,16.50
2018,06,16,08,30,16.50
2018,06,16,08,31,16.50
2018,06,16,08,32,16.50
2018,06,16,08,33,16.60
2018,06,16,08,34,16.60
2018,06,16,08,35,16.60
2018,06,16,08,36,16.60
2018,06,16,08,37,16.60
2018,06,16,08,38,16.60
2018,06,16,08,39,16.70
2018,06,16,08,40,16.70
2018,06,16,08,41,16.70
2018,06,16,08,42,16.70
2018,06,16,08,43,16.70
2018,06,16,08,44,16.70
2018,06,16,08,45,16.80
2018,06,16,08,46,16.80
2018,06,16,08,47,16.80
2018,06,16,08,48,16.80
2018,06,16,08,49,16.80
2018,06,16,08,50,16.80
2018,06,16,08,51,16.80
2018,06,16,08,52,16.90
2018,06,16,08,53,16.90
2018,06,16,08,54,16.90
2018,06,16,08,55,16.90
2018,06,16,08,56,16.90
2018,06,16,08,57,16.90
2018,06,16,08,58,16.90
2018,06,16,08,59,16.90
2018,06,16,09,00,16.90
2018,06,16,09,01,17.00
2018,06,16,09,02,17.10
2018,06,16,09,03,17.10
2018,06,16,09,04,17.10
2018,06,16,09,05,17.10
2018,06,16,09,06,17.20
2018,06,16,09,07,17.20
2018,06,16,09,08,17.20
2018,06,16,09,09,17.20
2018,06,16,09,10,17.30
2018,06,16,09,11,17.30
2018,06,16,09,12,17.30
2018,06,16,09,13,17.40
2018,06,16,09,14,17.40
2018,06,16,09,15,17.40
2018,06,16,09,16,17.40
2018,06,16,09,17,17.30
2018,06,16,09,18,17.30
2018,06,16,09,19,17.30
2018,06,16,09,20,17.30
2018,06,16,09,21,17.30
2018,06,16,09,22,17.30
2018,06,16,09,23,17.40
2018,06,16,09,24,17.40
2018,06,16,09,25,17.50
2018,06,16,09,26,17.50
2018,06,16,09,27,17.60
2018,06,16,09,28,17.60
2018,06,16,09,29,17.60
2018,06,16,09,30,17.60
2018,06,16,09,31,17.70
2018,06,16,09,32,17.70
2018,06,16,09,33,17.70
2018,06,16,09,34,17.70
2018,06,16,09,35,17.70
2018,06,16,09,36,17.70
2018,06,16,09,37,17.70
2018,06,16,09,38,17.70
2018,06,16,09,39,17.80
2018,06,16,09,40,17.80
2018,06,16,09,41,17.90
2018,06,16,09,42,17.80
2018,06,16,09,43,17.80
2018,06,16,09,44,17.90
2018,06,16,09,45,17.90
2018,06,16,09,46,18.00
2018,06,16,09,47,18.00
2018,06,16,09,48,18.10
2018,06,16,09,49,18.10
2018,06,16,09,50,18.10
2018,06,16,09,51,18.10
2018,06,16,09,52,18.20
2018,06,16,09,53,18.20
2018,06,16,09,54,18.30
2018,06,16,09,55,18.30
2018,06,16,09,56,18.30
2018,06,16,09,57,18.40
2018,06,16,09,58,18.40
2018,06,16,09,59,18.50
2018,06,16,10,00,18.50
2018,06,16,10,01,18.60
2018,06,16,10,02,18.60
2018,06,16,10,03,18.60
2018,06,16,10,04,18.60
2018,06,16,10,05,18.50
2018,06,16,10,06,18.40
2018,06,16,10,07,18.40
2018,06,16,10,08,18.40
2018,06,16,10,09,18.40
2018,06,16,10,10,18.40
2018,06,16,10,11,18.50
2018,06,16,10,12,18.50
2018,06,16,10,13,18.50
2018,06,16,10,14,18.60
2018,06,16,10,15,18.60
2018,06,16,10,16,18.70
2018,06,16,10,17,18.70
2018,06,16,10,18,18.70
2018,06,16,10,19,18.70
2018,06,16,10,20,18.70
2018,06,16,10,21,18.80
2018,06,16,10,22,18.80
2018,06,16,10,23,18.80
2018,06,16,10,24,18.80
2018,06,16,10,25,18.80
2018,06,16,10,26,18.90
2018,06,16,10,27,19.00
2018,06,16,10,28,19.10
2018,06,16,10,29,19.10
2018,06,16,10,30,19.10
2018,06,16,10,31,19.10
2018,06,16,10,32,19.20
2018,06,16,10,33,19.30
2018,06,16,10,34,19.40
2018,06,16,10,35,19.50
2018,06,16,10,36,19.50
2018,06,16,10,37,19.60
2018,06,16,10,38,19.60
2018,06,16,10,39,19.60
2018,06,16,10,40,19.70
2018,06,16,10,41,19.70
2018,06,16,10,42,19.70
2018,06,16,10,43,19.60
2018,06,16,10,44,19.60
2018,06,16,10,45,19.70
2018,06,16,10,46,19.70
2018,06,16,10,47,19.80
2018,06,16,10,48,19.80
2018,06,16,10,49,19.80
2018,06,16,10,50,19.90
2018,06,16,10,51,19.90
2018,06,16,10,52,20.00
2018,06,16,10,53,19.90
2018,06,16,10,54,19.90
2018,06,16,10,55,19.80
2018,06,16,10,56,19.90
2018,06,16,10,57,20.00
2018,06,16,10,58,20.00
2018,06,16,10,59,20.10
2018,06,16,11,00,20.20
2018,06,16,11,01,20.30
2018,06,16,11,02,20.40
2018,06,16,11,03,20.40
2018,06,16,11,04,20.40
2018,06,16,11,05,20.50
2018,06,16,11,06,20.50
2018,06,16,11,07,20.60
2018,06,16,11,08,20.60
2018,06,16,11,09,20.60
2018,06,16,11,10,20.50
2018,06,16,11,11,20.50
2018,06,16,11,12,20.40
2018,06,16,11,13,20.40
2018,06,16,11,14,20.40
2018,06,16,11,15,20.40
2018,06,16,11,16,20.50
2018,06,16,11,17,20.50
2018,06,16,11,18,20.60
2018,06,16,11,19,20.70
2018,06,16,11,20,20.80
2018,06,16,11,21,20.80
2018,06,16,11,22,20.80
2018,06,16,11,23,20.90
2018,06,16,11,24,20.90
2018,06,16,11,25,20.90
2018,06,16,11,26,20.90
2018,06,16,11,27,20.90
2018,06,16,11,28,20.90
2018,06,16,11,29,20.90
2018,06,16,11,30,20.90
2018,06,16,11,31,20.90
2018,06,16,11,32,20.90
2018,06,16,11,33,21.00
2018,06,16,11,34,21.00
2018,06,16,11,35,21.00
2018,06,16,11,36,21.00
2018,06,16,11,37,20.90
2018,06,16,11,38,20.90
2018,06,16,11,39,20.90
2018,06,16,11,40,21.00
2018,06,16,11,41,21.00
2018,06,16,11,42,21.10
2018,06,16,11,43,21.10
2018,06,16,11,44,21.20
2018,06,16,11,45,21.20
2018,06,16,11,46,21.20
2018,06,16,11,47,21.20
2018,06,16,11,48,21.20
2018,06,16,11,49,21.30
2018,06,16,11,50,21.30
2018,06,16,11,51,21.40
2018,06,16,11,52,21.50
2018,06,16,11,53,21.40
2018,06,16,11,54,21.40
2018,06,16,11,55,21.40
2018,06,16,11,56,21.50
2018,06,16,11,57,21.50
2018,06,16,11,58,21.50
2018,06,16,11,59,21.60
2018,06,16,12,00,21.60
2018,06,16,12,01,21.70
2018,06,16,12,02,21.80
2018,06,16,12,03,21.80
2018,06,16,12,04,21.80
2018,06,16,12,05,21.80
2018,06,16,12,06,21.80
2018,06,16,12,07,21.80
2018,06,16,12,08,21.80
2018,06,16,12,09,21.80
2018,06,16,12,10,21.90
2018,06,16,12,11,21.90
2018,06,16,12,12,22.00
2018,06,16,12,13,22.10
2018,06,16,12,14,22.20
2018,06,16,12,15,22.20
2018,06,16,12,16,22.20
2018,06,16,12,17,22.20
2018,06,16,12,18,22.20
2018,06,16,12,19,22.20
2018,06,16,12,20,22.20
2018,06,16,12,21,22.20
2018,06,16,12,22,22.30
2018,06,16,12,23,22.40
2018,06,16,12,24,22.40
2018,06,16,12,25,22.40
2018,06,16,12,26,22.50
2018,06,16,12,27,22.50
2018,06,16,12,28,22.50
2018,06,16,12,29,22.40
2018,06,16,12,30,22.40
2018,06,16,12,31,22.40
2018,06,16,12,32,22.40
2018,06,16,12,33,22.40
2018,06,16,12,34,22.30
2018,06,16,12,35,22.30
2018,06,16,12,36,22.40
2018,06,16,12,37,22.50
2018,06,16,12,38,22.50
2018,06,16,12,39,22.60
2018,06,16,12,40,22.60
2018,06,16,12,41,22.70
2018,06,16,12,42,22.70
2018,06,16,12,43,22.60
2018,06,16,12,44,22.60
2018,06,16,12,45,22.70
2018,06,16,12,46,22.70
2018,06,16,12,47,22.70
2018,06,16,12,48,22.70
2018,06,16,12,49,22.70
2018,06,16,12,50,22.70
2018,06,16,12,51,22.80
2018,06,16,12,52,22.80
2018,06,16,12,53,22.80
2018,06,16,12,54,22.80
2018,06,16,12,55,22.90
2018,06,16,12,56,23.00
2018,06,16,12,57,23.10
2018,06,16,12,58,23.20
2018,06,16,12,59,23.20
2018,06,16,13,00,23.20
2018,06,16,13,01,23.10
2018,06,16,13,02,23.10
2018,06,16,13,03,23.10
2018,06,16,13,04,23.10
2018,06,16,13,05,23.20
2018,06,16,13,06,23.20
2018,06,16,13,07,23.20
2018,06,16,13,08,23.20
2018,06,16,13,09,23.20
2018,06,16,13,10,23.10
2018,06,16,13,11,23.10
2018,06,16,13,12,23.10
2018,06,16,13,13,23.10
2018,06,16,13,14,23.20
2018,06,16,13,15,23.20
2018,06,16,13,16,23.10
2018,06,16,13,17,23.10
2018,06,16,13,18,23.00
2018,06,16,13,19,23.00
2018,06,16,13,20,23.00
2018,06,16,13,21,23.00
2018,06,16,13,22,23.00
2018,06,16,13,23,23.10
2018,06,16,13,24,23.20
2018,06,16,13,25,23.30
2018,06,16,13,26,23.30
2018,06,16,13,27,23.40
2018,06,16,13,28,23.50
2018,06,16,13,29,23.50
2018,06,16,13,30,23.50
2018,06,16,13,31,23.50
2018,06,16,13,32,23.50
2018,06,16,13,33,23.40
2018,06,16,13,34,23.40
2018,06,16,13,35,23.40
2018,06,16,13,36,23.40
2018,06,16,13,37,23.50
2018,06,16,13,38,23.60
2018,06,16,13,39,23.70
2018,06,16,13,40,23.70
2018,06,16,13,41,23.70
2018,06,16,13,42,23.70
2018,06,16,13,43,23.80
2018,06,16,13,44,23.80
2018,06,16,13,45,23.90
2018,06,16,13,46,23.90
2018,06,16,13,47,24.00
2018,06,16,13,48,24.10
2018,06,16,13,49,24.10
2018,06,16,13,50,24.10
2018,06,16,13,51,24.10
2018,06,16,13,52,24.00
2018,06,16,13,53,24.00
2018,06,16,13,54,23.90
2018,06,16,13,55,23.90
2018,06,16,13,56,23.80
2018,06,16,13,57,23.80
2018,06,16,13,58,23.80
2018,06,16,13,59,23.90
2018,06,16,14,00,24.00
2018,06,16,14,01,24.20
2018,06,16,14,02,24.30
2018,06,16,14,03,24.30
2018,06,16,14,04,24.40
2018,06,16,14,05,24.40
2018,06,16,14,06,24.30
2018,06,16,14,07,24.20
2018,06,16,14,08,24.10
2018,06,16,14,09,24.10
2018,06,16,14,10,24.10
2018,06,16,14,11,24.10
2018,06,16,14,12,24.20
2018,06,16,14,13,24.30
2018,06,16,14,14,24.50
2018,06,16,14,15,24.60
2018,06,16,14,16,24.60
2018,06,16,14,17,24.60
2018,06,16,14,18,24.60
2018,06,16,14,19,24.60
2018,06,16,14,20,24.70
2018,06,16,14,21,24.70
2018,06,16,14,22,24.70
2018,06,16,14,23,24.70
2018,06,16,14,24,24.60
2018,06,16,14,25,24.60
2018,06,16,14,26,24.50
2018,06,16,14,27,24.50
2018,06,16,14,28,24.50
2018,06,16,14,29,24.60
2018,06,16,14,30,24.60
2018,06,16,14,31,24.60
2018,06,16,14,32,24.50
2018,06,16,14,33,24.50
2018,06,16,14,34,24.50
2018,06,16,14,35,24.50
2018,06,16,14,36,24.50
2018,06,16,14,37,24.50
2018,06,16,14,38,24.60
2018,06,16,14,39,24.60
2018,06,16,14,40,24.60
2018,06,16,14,41,24.60
2018,06,16,14,42,24.70
2018,06,16,14,43,24.60
2018,06,16,14,44,24.60
2018,06,16,14,45,24.60
2018,06,16,14,46,24.60
2018,06,16,14,47,24.70
2018,06,16,14,48,24.70
2018,06,16,14,49,24.80
2018,06,16,14,50,24.70
2018,06,16,14,51,24.80
2018,06,16,14,52,24.80
2018,06,16,14,53,24.80
2018,06,16,14,54,24.90
2018,06,16,14,55,24.90
2018,06,16,14,56,24.90
2018,06,16,14,57,24.90
2018,06,16,14,58,24.90
2018,06,16,14,59,24.90
2018,06,16,15,00,24.80
2018,06,16,15,01,24.80
2018,06,16,15,02,24.80
2018,06,16,15,03,24.90
2018,06,16,15,04,24.90
2018,06,16,15,05,24.90
2018,06,16,15,06,24.90
2018,06,16,15,07,25.00
2018,06,16,15,08,25.10
2018,06,16,15,09,25.10
2018,06,16,15,10,25.10
2018,06,16,15,11,25.10
2018,06,16,15,12,25.10
2018,06,16,15,13,25.10
2018,06,16,15,14,25.20
2018,06,16,15,15,25.20
2018,06,16,15,16,25.20
2018,06,16,15,17,25.20
2018,06,16,15,18,25.30
2018,06,16,15,19,25.30
2018,06,16,15,20,25.30
2018,06,16,15,21,25.30
2018,06,16,15,22,25.30
2018,06,16,15,23,25.30
2018,06,16,15,24,25.30
2018,06,16,15,25,25.30
2018,06,16,15,26,25.20
2018,06,16,15,27,25.20
2018,06,16,15,28,25.20
2018,06,16,15,29,25.30
2018,06,16,15,30,25.30
2018,06,16,15,31,25.30
2018,06,16,15,32,25.30
2018,06,16,15,33,25.30
2018,06,16,15,34,25.30
2018,06,16,15,35,25.20
2018,06,16,15,36,25.30
2018,06,16,15,37,25.40
2018,06,16,15,38,25.50
2018,06,16,15,39,25.60
2018,06,16,15,40,25.60
2018,06,16,15,41,25.70
2018,06,16,15,42,25.80
2018,06,16,15,43,25.90
2018,06,16,15,44,25.90
2018,06,16,15,45,25.90
2018,06,16,15,46,25.80
2018,06,16,15,47,25.70
2018,06,16,15,48,25.60
2018,06,16,15,49,25.60
2018,06,16,15,50,25.60
2018,06,16,15,51,25.60
2018,06,16,15,52,25.50
2018,06,16,15,53,25.50
2018,06,16,15,54,25.50
2018,06,16,15,55,25.60
2018,06,16,15,56,25.60
2018,06,16,15,57,25.60
2018,06,16,15,58,25.70
2018,06,16,15,59,25.70
2018,06,16,16,00,25.70
2018,06,16,16,01,25.80
2018,06,16,16,02,25.70
2018,06,16,16,03,25.60
2018,06,16,16,04,25.60
2018,06,16,16,05,25.60
2018,06,16,16,06,25.60
2018,06,16,16,07,25.60
2018,06,16,16,08,25.70
2018,06,16,16,09,25.70
2018,06,16,16,10,25.80
2018,06,16,16,11,25.80
2018,06,16,16,12,25.90
2018,06,16,16,13,25.90
2018,06,16,16,14,25.80
2018,06,16,16,15,25.80
2018,06,16,16,16,25.70
2018,06,16,16,17,25.70
2018,06,16,16,18,25.70
2018,06,16,16,19,25.70
2018,06,16,16,20,25.70
2018,06,16,16,21,25.70
2018,06,16,16,22,25.80
2018,06,16,16,23,25.80
2018,06,16,16,24,25.80
2018,06,16,16,25,25.80
2018,06,16,16,26,25.80
2018,06,16,16,27,25.80
2018,06,16,16,28,25.90
2018,06,16,16,29,25.90
2018,06,16,16,30,25.90
2018,06,16,16,31,25.90
2018,06,16,16,32,25.90
2018,06,16,16,33,25.90
2018,06,16,16,34,25.90
2018,06,16,16,35,25.90
2018,06,16,16,36,26.00
2018,06,16,16,37,26.10
2018,06,16,16,38,26.20
2018,06,16,16,39,26.20
2018,06,16,16,40,26.20
2018,06,16,16,41,26.30
2018,06,16,16,42,26.30
2018,06,16,16,43,26.30
2018,06,16,16,44,26.30
2018,06,16,16,45,26.30
2018,06,16,16,46,26.20
2018,06,16,16,47,26.10
2018,06,16,16,48,26.10
2018,06,16,16,49,26.10
2018,06,16,16,50,26.10
2018,06,16,16,51,26.10
2018,06,16,16,52,26.10
2018,06,16,16,53,26.10
2018,06,16,16,54,26.20
2018,06,16,16,55,26.30
2018,06,16,16,56,26.30
2018,06,16,16,57,26.30
2018,06,16,16,58,26.40
2018,06,16,16,59,26.40
2018,06,16,17,00,26.40
2018,06,16,17,01,26.40
2018,06,16,17,02,26.30
2018,06,16,17,03,26.30
2018,06,16,17,04,26.30
2018,06,16,17,05,26.30
2018,06,16,17,06,26.40
2018,06,16,17,07,26.40
2018,06,16,17,08,26.30
2018,06,16,17,09,26.30
2018,06,16,17,10,26.30
2018,06,16,17,11,26.30
2018,06,16,17,12,26.30
2018,06,16,17,13,26.20
2018,06,16,17,14,26.30
2018,06,16,17,15,26.30
2018,06,16,17,16,26.30
2018,06,16,17,17,26.30
2018,06,16,17,18,26.30
2018,06,16,17,19,26.40